Meteo Giornale » Osservazioni meteo Italia » Roma Fiumicino

ore: 21:20 - Osservazioni Meteo Roma Fiumicino
Lat. 41° 48' N Lon. 12° 14' E Alt. 2 metri s.l.m.

nuvoloso Europe/Rome

15 °C

Nuvoloso

Temp. 24 Ore

14 °C

20 °C

Ovest/Sud-Ovest

9.3 Km/h

Dew point 13 °C

Umidità 87 %

Visibilità  10 Km

Il sole sorge alle ore 06:59

Il sole tramonta alle ore 16:52

Data e Ora Cielo e Fenomeni T °C DP °C Um. % Pres. hPa Vis. km Vento km/h
Oggi h: 21:20 nuvoloso Nuvoloso 15 13 87 1007 10 O/SO 9.3
Oggi h: 20:50 nuvoloso Nuvoloso 16 13 82 1006 10 O/SO 9.3
Oggi h: 20:20 nuvoloso Nuvoloso 16 13 82 1006 10 O/SO 11.1
Oggi h: 19:50 nuvoloso Nuvoloso 15 13 87 1005 10 O/SO 9.3
Oggi h: 19:20 nuvoloso Nuvoloso 15 13 87 1005 10 O/SO 9.3
Oggi h: 18:50 nuvoloso Nuvoloso 15 14 93 1004 10 O 13
Oggi h: 18:20 nuvoloso Nuvoloso 15 14 93 1004 8 O/SO 16.7
Oggi h: 17:50 nuvoloso Nuvoloso 15 14 93 1003 8 O 20.3
Oggi h: 16:50 nuvoloso_piovaschi Rovescio di Pioggia 17 16 93 1002 3 S 24
Oggi h: 16:20 nuvoloso_temporali Temporale con Pioggia 18 15 82 1002 3 S 29.6
Oggi h: 15:50 nuvoloso_temporali Temporale con Pioggia 18 16 88 1002 3 S 22.2
Oggi h: 15:20 coperto_pioggia Pioggia Debole 17 14 82 1003 6 S/SE 27.8
Oggi h: 14:50 nuvoloso_temporali Temporale con Pioggia Debole 17 15 88 1003 6 S 22.2
Oggi h: 14:20 nuvoloso_temporali Temporale con Pioggia 19 14 72 1003 4 S 31.5
Oggi h: 13:50 molto_nuvoloso Molto Nuvoloso 19 14 72 1002 10 S/SE 31.5
Oggi h: 13:20 molto_nuvoloso Molto Nuvoloso 19 13 68 1003 10 S 35.2
Oggi h: 12:50 molto_nuvoloso Molto Nuvoloso 20 14 68 1003 10 S/SE 33.3
Oggi h: 12:20 molto_nuvoloso Molto Nuvoloso 19 14 72 1003 10 S 31.5
Oggi h: 11:50 nuvoloso_piovaschi Debole Rovescio di Pioggia 19 14 72 1004 10 S/SE 31.5
Oggi h: 11:20 nuvoloso_piovaschi Debole Rovescio di Pioggia 19 14 72 1004 9 S/SE 37
Oggi h: 10:50 nuvoloso Rovescio nelle Vicinanze 19 14 72 1004 10 S/SE 33.3
Oggi h: 10:20 nuvoloso Nuvoloso 19 14 72 1004 10 S/SE 40.7
Oggi h: 09:50 nuvoloso Rovescio nelle Vicinanze 19 14 72 1004 10 S/SE 37
Oggi h: 09:20 nuvoloso Nuvoloso 18 14 77 1004 10 S/SE 35.2
Oggi h: 08:50 nuvoloso Nuvoloso 18 13 72 1004 10 S/SE 37
Oggi h: 08:20 nuvoloso Rovescio nelle Vicinanze 18 13 72 1004 10 S/SE 37
Oggi h: 07:50 nuvoloso Nuvoloso 18 13 72 1004 10 S/SE 25.9
Oggi h: 07:20 nuvoloso Nuvoloso 18 13 72 1005 10 S 20.3
Oggi h: 06:50 nuvoloso Nuvoloso 18 13 72 1004 10 S/SE 20.3
Oggi h: 06:20 nuvoloso Nuvoloso 17 12 72 1005 10 S 18.5
Oggi h: 05:50 poco_nuvoloso Poco Nuvoloso 17 11 67 1005 10 S 20.3
Oggi h: 05:20 nuvoloso Nuvoloso 17 11 67 1005 10 S 22.2
Oggi h: 04:50 nuvoloso Nuvoloso 17 11 67 1005 10 S 20.3
Oggi h: 04:20 nuvoloso Nuvoloso 17 9 59 1005 10 S 22.2
Oggi h: 03:50 nuvoloso Nuvoloso 17 11 67 1005 10 S 16.7
Oggi h: 03:20 nuvoloso Nuvoloso 17 12 72 1005 10 S 25.9
Oggi h: 02:50 nuvoloso Nuvoloso 17 13 77 1005 10 S 20.3
Oggi h: 02:20 nuvoloso Nuvoloso 17 13 77 1005 10 S 16.7
Oggi h: 01:50 nuvoloso Nuvoloso 16 14 87 1005 10 S/SE 14.8
Oggi h: 01:20 nuvoloso Nuvoloso 15 14 93 1005 10 SE 18.5
Oggi h: 00:50 nuvoloso_piovaschi Rovescio di Pioggia 15 13 87 1005 5 S/SE 7.4
Oggi h: 00:20 nuvoloso_piovaschi Debole Rovescio di Pioggia 15 13 87 1005 8 E/SE 22.2
Ieri h: 23:50 poco_nuvoloso Poco Nuvoloso 15 13 87 1005 10 SE 20.3
Ieri h: 23:20 nuvoloso Nuvoloso 15 13 87 1005 10 SE 22.2
Ieri h: 22:50 nuvoloso Nuvoloso 15 13 87 1006 10 SE 20.3
Ieri h: 22:20 poco_nuvoloso Poco Nuvoloso 15 13 87 1006 10 E/SE 24
Ieri h: 21:50 nuvoloso Nuvoloso 14 13 93 1006 10 SE 18.5
Ieri h: 21:20 nuvoloso Nuvoloso 14 13 93 1006 10 E/SE 22.2
Ieri h: 20:50 coperto_pioggia Pioggia Debole 15 13 87 1006 10 SE 22.2